Terminal Aerodrome Forecast
Issued by NWS State College, PA

Home | Current Version | Previous Version | Text Only | Print | Product List | Glossary On
Versions: 1 2 3 4 5 6 7 8 9 10 11 12 13 14 15 16 17 18 19 20 21 22 23 24 25 26 27 28 29 30 31 32 33 34 35 36 37 38 39 40 41 42 43 44 45 46 47 48 49 50
000
FTUS41 KCTP 300603 RRA
TAFMDT
TAF
KMDT 300603Z 3006/3106 16005KT P6SM SCT025
     FM300900 VRB03KT 5SM BR SCT010
     FM301100 VRB03KT 2SM BR SCT005
     FM301300 19008KT P6SM SCT050 PROB30 3019/3023 P6SM -TSRA
      BKN050CB
     FM310000 17005KT 6SM -SHRA OVC050=

USA.gov is the U.S. government's official web portal to all federal, state and local government web resources and services.